Simultaneous Nadir Overpasses (SNOs) Predictions

Prediction of SNOs between NOAA-21 and LANDSAT-8 Satellite Orbit:

Table of predicted SNOs for the next 14.0 days since TLE Epoch: 8/3/2024
Index Date (NOAA-21) Time (NOAA-21) Lat,Lon (NOAA-21) SZA (NOAA-21 ) Date (LANDSAT-8) Time (LANDSAT-8) Lat,Lon (LANDSAT-8) SZA (LANDSAT-8 ) Distance(km) Time Diff (sec)
1 08/03/2024 06:20:04 70.10, 81.24 52.73 08/03/2024 06:20:54 70.11, 81.16 52.74 3.37 50
2 08/03/2024 07:10:47 -70.05,-111.37 127.31 08/03/2024 07:10:23 -70.04,-111.30 127.32 2.66 24
3 08/05/2024 21:46:34 -71.10, 28.08 125.50 08/05/2024 21:47:40 -70.97, 30.71 125.73 95.94 66
4 08/05/2024 22:37:01 70.11,-163.00 53.47 08/05/2024 22:37:21 70.11,-162.93 53.47 2.72 20
5 08/05/2024 23:27:43 -70.00, 4.47 126.64 08/05/2024 23:26:51 -69.99, 4.53 126.64 2.39 52
6 08/08/2024 14:03:12 -70.18, 145.35 125.72 08/08/2024 14:04:20 -70.18, 145.41 125.73 2.32 68
7 08/08/2024 14:53:55 70.03, -47.11 54.13 08/08/2024 14:53:48 70.02, -47.17 54.13 2.36 7
8 08/08/2024 15:44:33 -69.71, 120.69 126.20 08/08/2024 15:43:21 -69.74, 120.07 126.13 24.06 72
9 08/11/2024 06:20:07 -70.10, -98.76 125.02 08/11/2024 06:20:47 -70.11, -98.79 125.02 1.48 40
10 08/11/2024 07:10:51 70.01, 68.70 54.89 08/11/2024 07:10:14 70.00, 68.70 54.89 0.52 37
11 08/13/2024 21:46:28 70.57,-151.04 56.28 08/13/2024 21:47:38 70.44,-150.05 56.10 39.97 70
12 08/13/2024 22:37:03 -70.09, 17.03 124.22 08/13/2024 22:37:12 -70.11, 17.11 124.21 3.32 9
13 08/13/2024 23:27:46 69.94,-175.44 55.64 08/13/2024 23:26:40 69.94,-175.48 55.64 1.94 66
14 08/16/2024 14:03:16 70.15, -34.61 56.67 08/16/2024 14:04:07 70.17, -34.53 56.68 3.34 51
15 08/16/2024 14:53:58 -70.04, 132.89 123.45 08/16/2024 14:53:38 -70.01, 132.87 123.47 3.23 20



Historial Predications of SNOs between NOAA-21 and LANDSAT-8
